ICEYE-X39

导读

ICEYE-X39是芬兰冰眼公司于2024年8月16日发射的合成孔径雷达(SAR)卫星,属于ICEYE卫星星座。它具备全天时、全天候成像能力,拥有聚束、条带、扫描等多种工作模式,最高分辨率可达0.5米,可满足自然灾害监测、海事监管、边境监控等多领域近实时对地观测需求,进一步扩充了全球最大SAR卫星星座的观测能力。

基本信息
目录编号:
60546
目录名称:
ICEYE-X39
国际标识:
2024-149CG
轨道中心:
EARTH
卫星名称:
ICEYE-X39
卫星全名:
ICEYE-X39
卫星状态:
在轨 (已飞行750 天)
发射日期:
2024-08-16 UTC
国别 :
巴西 (BR)
星等 :
--
轨道信息
数据来源 国际轨道数据
星历时间: 2026-09-03T01:17:14+0800
2天前
查看轨道信息
半长轴: 6944.744km
偏心率: 0.0007547
轨道倾角: 97.677°
近地点辐角 225.328°
升交点赤经 321.737°
平近点角 134.733°
近地点: 561.365km
远地点: 571.849km
周期: 95.994分钟
每日圈数: 15.000938
详细信息
使用方式:
暂无
2D轨道图
3D轨道图
轨道高度分析图
轨道倾角分析图
轨道综合分析图
查看轨道综合分析图
交会数据列表
事件ID 空间交会对象 最接近时刻(TCA) 交会距离 交会风险概率(CRP) 交会风险指数(CRI) 操作
CDM_260907-030704-914506-054621
2026-09-07T
03:07:16+0000
1.032 km
极远距离
2.459984E-5 中风险 0.63
CDM_260906-154705-574606-054621
2026-09-06T
15:47:17+0000
1.229 km
极远距离
1.34056E-5 中风险 0.58
CDM_260906-234906-054606-324822
2026-09-06T
23:49:18+0000
1.455 km
极远距离
7.479862E-6 低风险 0.52
CDM_260905-153105-577406-054621
2026-09-05T
15:31:14+0000
2.991 km
极远距离
1.351778E-6 低风险 0.38
CDM_260901-031906-054606-850421
2026-09-01T
03:19:19+0000
2.906 km
极远距离
1.286852E-6 低风险 0.37